Location: DARK SKY Beskydy - Park tmavé oblohy, www.darkskybeskydy.cz
(49.4926°N, 18.5016°E)
Time: 09:53:32
(UTC+02:00)

Transit 4A - Pass Details

Date: 03 March 2024
Orbit: 871 x 971 km, 66.8° (Epoch: 24 April)

Event Time Altitude Azimuth Distance (km) Brightness Sun altitude
Exits shadow 00:51:50 15° 28° (NNE) 2,247 10.4 -45.7°
Drops below altitude 10° 00:52:47 10° 31° (NNE) 2,578 10.8 -45.7°
Sets 00:55:19 0° 36° (NE) 3,508 11.6 -45.5°
